User: anonymous   Login
Location: Pacheco
(37.9835°N, 122.0752°W)
Time: 16:27:53
(UTC+00:00)
Language:

Cosmos 1939 Rocket - Orbit

View from above orbital plane
View from above orbital plane
View from above satellite
View from above satellite

Ground track
Ground track

The orbit data is extracted from the following two-line orbital elements,

1 19046U 88032B   24170.51577016  .00003705  00000-0  22916-3 0  9995
2 19046  97.4479 152.2554 0030142 253.0627 106.7298 15.10071182957102
Epoch (UTC): 18 June 2024 12:22:42
Eccentricity: 0.0030142
inclination: 97.4479°
perigee height: 515 km
apogee height: 557 km
right ascension of ascending node: 152.2554°
argument of perigee: 253.0627°
revolutions per day: 15.10071182
mean anomaly at epoch: 106.7298°
orbit number at epoch: 95710

The dashed part of the orbit path shows where the satellite is in the earth's shadow,  

DLR